Location: Bielsko-Biala
(49.8170°N, 19.0330°E)
Time: 21:15:27
(UTC+01:00)

ISS - Visible Passes

Search period start: 30 November 2022 00:00
Search period end: 10 December 2022 00:00
Orbit: 415 x 420 km, 51.6° (Epoch: 30 November)

Date Brightness Start Highest point End Pass type
(mag) Time Alt. Az. Time Alt. Az. Time Alt. Az.
30 Nov -3.7 17:03:55 10° WNW 17:07:16 65° N 17:09:13 22° E visible
30 Nov -1.2 18:40:46 10° WNW 18:42:09 22° W 18:42:09 22° W visible
01 Dec -3.7 17:52:44 10° WNW 17:56:04 72° SSW 17:56:13 70° S visible
02 Dec -3.8 17:04:42 10° WNW 17:08:04 88° NNE 17:10:23 19° ESE visible
02 Dec -1.1 18:41:45 10° W 18:43:20 20° WSW 18:43:20 20° WSW visible
03 Dec -3.8 16:16:41 10° WNW 16:20:03 73° NNE 16:23:23 10° E visible
03 Dec -2.5 17:53:34 10° W 17:56:42 37° SSW 17:57:38 30° S visible
04 Dec -3.1 17:05:29 10° WNW 17:08:46 53° SSW 17:12:02 10° SE visible
04 Dec -0.7 18:43:36 10° WSW 18:44:57 12° SW 18:45:06 12° SW visible
05 Dec -3.5 16:17:27 10° WNW 16:20:48 73° SSW 16:24:09 10° ESE visible
05 Dec -1.1 17:54:48 10° W 17:57:10 18° SW 17:59:32 10° S visible
06 Dec -1.6 17:06:28 10° W 17:09:20 26° SW 17:12:11 10° SSE visible
07 Dec -2.2 16:18:18 10° W 16:21:27 38° SSW 16:24:34 10° SE visible
08 Dec -0.5 17:08:14 10° WSW 17:09:43 12° SW 17:11:11 10° SSW visible
09 Dec -0.7 16:19:30 10° W 16:21:55 19° SW 16:24:19 10° S visible
